Other Public Products
Issued by NWS Grand Forks, ND

Home | Current Version | Previous Version | Graphics & Text | Print | Product List | Glossary On
Versions: 1 2 3 4 5 6 7 8 9 10 11 12 13 14 15 16 17 18 19 20 21 22 23 24 25 26 27 28 29 30 31 32 33 34 35 36 37 38 39 40 41 42 43 44 45 46 47 48 49 50
000
FPUS83 KFGF 051310
OPUFGF
PRAIRIE TO PINES WEATHER ROUNDUP
NATIONAL WEATHER SERVICE EASTERN NORTH DAKOTA/GRAND FORKS ND
700 AM CST MON DEC 05 2016

 **SATELLITE DATA USED TO AUGMENT SKY COVER AT AUTOMATED STATIONS**
 *****  WEATHER ACROSS EASTERN NORTH DAKOTA  *****

CITY           SKY/WX    TMP DP  RH WIND       PRES   REMARKS
GRAND FORKS    CLOUDY    26  24  92 E6        29.70R FOG     WCI  19
GRAND FORKS AF CLOUDY    25  24  97 SE6       29.69S FOG     WCI  18
GRAND CITY NWS   N/A     27 N/A N/A SE9         N/A  WCI  17
BUXTON         NOT AVBL
DEVILS LAKE    CLOUDY    22  21  96 E10       29.62R FOG     WCI  11
FARGO          CLEAR     21  18  88 E6        29.67F WCI  13
WAHPETON ARPT  SUNNY     28  27  93 E8        29.65F WCI  20
$$

 *****  WEATHER ACROSS CENTRAL AND WESTERN NORTH DAKOTA  *****

CITY           SKY/WX    TMP DP  RH WIND       PRES   REMARKS
JAMESTOWN      CLEAR     23  21  92 E9        29.57F WCI  13
BISMARCK       CLOUDY    22  19  89 SE5       29.55S WCI  16
MINOT          CLOUDY    20  18  92 E7        29.51F WCI  11
MINOT AFB      PTCLDY    19  17  91 SE9       29.50F WCI   8
GARRISON         N/A     26  23  88 S5        29.50S WCI  20
WILLISTON      CLOUDY    29  25  85 W10       29.53R WCI  20
DICKINSON      CLOUDY    31  27  85 W22       29.50R WCI  18
HETTINGER      LGT SNOW  31  28  89 NW14      29.53S FOG     WCI  21
$$

 *****  OTHER OBSERVATIONS NORTHEAST NORTH DAKOTA  *****

CITY           SKY/WX    TMP DP  RH WIND       PRES   REMARKS
WALHALLA         N/A     27  27 100 SE5       29.68R WCI  21
LANGDON        FOG       23  23 100 E12       29.63R VSB 1/2 WCI  12
CAVALIER         N/A     27  27 100 SE8       29.68S WCI  18
GRAFTON        CLOUDY    25  25 100 SE6       29.72R FOG     WCI  18
CANDO          CLOUDY    23  23 100 E12       29.62F WCI  12
FORT TOTTEN      N/A     21  21 100 E5        29.95S WCI  15
ROLLA          LGT SNOW  19  19 100 S24G48    29.60F WCI   2
RUGBY            N/A     23  23 100 E17       29.56S WCI   9
 ***** THE ABOVE OBSERVATIONS ARE NON NWS ARE NOT QUALITY
        CONTROLLED AND MAY MIS-REPORT RAIN FOR SNOW...
$$

 *****  OTHER OBSERVATIONS SOUTHEAST NORTH DAKOTA *****

CITY           SKY/WX    TMP DP  RH WIND       PRES   REMARKS
COOPERSTOWN    FOG       21  21 100 E14       29.61F VSB 3/4 WCI   8
VALLEY CITY    FAIR      19  19 100 E10       29.63F WCI   8
OAKES          NOT AVBL
GWINNER          N/A     27  25  93 E7        29.61F WCI  19
SHEYENNE NWR     N/A     24  22  92 E7        29.95S WCI  16
BUFFALO        NOT AVBL
WYNDMERE       NOT AVBL
 ***** THE ABOVE OBSERVATIONS ARE NON NWS ARE NOT QUALITY
       CONTROLLED AND MAY MIS-REPORT RAIN FOR SNOW...
$$

  *****  WEATHER ACROSS NORTHERN MINNESOTA  *****

CITY           SKY/WX    TMP DP  RH WIND       PRES   REMARKS
FLAG ISLAND    CLOUDY    30  28  93 W7        29.68R WCI  23
WARROAD        CLOUDY    30  27  86 W5        29.71R
ROSEAU         CLOUDY    30  25  80 NW5       29.71R
HALLOCK        CLOUDY    28  27  93 E3        29.69F
THF RVR FALLS  CLOUDY    26  25  96 SE9       29.71R WCI  17
HALSTAD          N/A     26  25  95 E7          N/A  WCI  18
FOSSTON        CLOUDY    25  25 100 E3        29.70R
BAUDETTE       CLOUDY    29  25  85 W7        29.69R WCI  22
WASKISH        CLOUDY    28  27  93 NW3       29.71F
CROOKSTON      CLOUDY    27  27 100 SE9       29.71R FOG     WCI  17
$$
  *****  WEATHER ACROSS CENTRAL AND WEST MINNESOTA  *****

CITY           SKY/WX    TMP DP  RH WIND       PRES   REMARKS
BEMIDJI        CLOUDY    27  25  94 SE3       29.69F
PARK RAPIDS    FOG       26  23  88 SE6       29.71R VSB 1/4 WCI  19
WADENA         CLEAR     19  19 100 CALM      29.69S
DETROIT LAKES  CLEAR     23  23 100 E3        29.68S
MOORHEAD       CLEAR     21  19  93 E5        29.68S WCI  15
FERGUS FALLS   CLOUDY    27  27 100 E6        29.71S WCI  20
ELBOW LAKE     FAIR      28  26  95 CALM      29.67S
MORRIS MN      CLEAR     27  27 100 SE8       29.65S WCI  18
STAPLES        CLEAR     19  19 100 CALM      29.71S
WHEATON        NOT AVBL
$$
  *****  WEATHER ELSEWHERE ACROSS MINNESOTA  *****

CITY           SKY/WX    TMP DP  RH WIND       PRES   REMARKS
DULUTH         CLOUDY    31  27  85 W7        29.75R WCI  24
INTRNTL FALLS  CLOUDY    29  27  92 W8        29.70R WCI  21
ELY            CLOUDY    28  27  93 W9        29.71R WCI  20
CLOQUET        CLOUDY    30  27  86 W3        29.75S
BRAINERD       FOG       22  21  96 CALM      29.73F VSB 1/2
HIBBING        CLOUDY    28  25  88 CALM      29.73R
ALEXANDRIA     CLEAR     25  24  96 E8        29.68F WCI  16
SAINT CLOUD    CLEAR     26  26 100 E5        29.73F WCI  20
MINNEAPOLIS    MOCLDY    30  27  88 SE6       29.78S WCI  24
$$

  *****  WEATHER ACROSS SOUTH DAKOTA  *****

CITY           SKY/WX    TMP DP  RH WIND       PRES   REMARKS
SIOUX FALLS    CLOUDY    36  30  79 S15       29.61F
BROOKINGS      PTCLDY    32  29  88 SE14      29.57F WCI  22
WATERTOWN      PTCLDY    32  26  78 SE7       29.57F
HURON          CLOUDY    29  26  89 SE7       29.53F WCI  22
SISSETON         N/A     22  21  96 CALM      29.62F
ABERDEEN       CLEAR     21  18  88 E5        29.56F WCI  15
MITCHELL       CLOUDY    33  28  81 SE7       29.55F
PIERRE         PTCLDY    23  19  85 E3        29.47F
MOBRIDGE       PTCLDY    29  22  75 E10       29.46F WCI  20
RAPID CITY     PTCLDY    34  28  79 NW30G39   29.49S WCI  20
$$

  *****  SOME WEATHER IN NEARBY STATES *****

CITY           SKY/WX    TMP DP  RH WIND       PRES   REMARKS
GLASGOW MT     LGT SNOW  22  19  89 W20       29.72R FOG     WCI   7
GREAT FALLS MT CLOUDY    18  13  80 NW9       29.89R WCI   7
CHEYENNE WY    CLOUDY    39  19  44 W25G33    29.57F
SCOTTSBLUFF NE CLOUDY    45  22  40 W9        29.54S
OMAHA NE       CLOUDY    35  30  82 SE14      29.78F
DES MOINES IA  CLOUDY    32  31  96 S10       29.86F FOG     WCI  24
DAVENPORT IA   FOG       31  31 100 S10       29.97F VSB 1/2 WCI  22
CHICAGO IL     CLOUDY    33  31  92 W5        30.00R
EAU CLAIRE WI  CLEAR     28  27  96 SE3       29.82F
LA CROSSE WI   CLOUDY    35  32  88 S8        29.87S
$$

  *****  SOME NATIONAL WEATHER *****

CITY           SKY/WX    TMP DP  RH WIND       PRES   REMARKS
LA GUARDIA NY  LGT RAIN  42  39  89 S7        30.01F FOG
RALEIGH NC     MOCLDY    43  41  93 CALM      30.00R FOG
ATLANTA GA     FOG       45  45 100 CALM      29.99S VSB 1
NEW ORLEANS LA FOG       59  59 100 E7        29.86F VSB 1
OKLAHOMA CITY  FOG       32  31  96 CALM      29.88F VSB 1/4
ALBUQUERQUE NM CLOUDY    27  13  55 SE5       29.93F WCI  22
SALT LAKE CITY LGT SNOW  32  21  64 N3        29.97R
LOS ANGELES CA FOG       53  53 100 E3        29.94S VSB 1/16
BOISE ID       CLEAR     24  17  74 NW3       30.11R
SEATTLE WA     CLOUDY    37  32  82 S12       30.10F
$$

*** WEATHER ACROSS MANITOBA...SASKATCHEWAN AND ONTARIO ***
                ***ONTARIO***

CITY           SKY/WX    TMP DP  RH WIND       PRES   REMARKS
GERALDTON      LGT SNOW  25  23  93 CALM      29.64R FOG
THUNDER BAY    MOCLDY    28  28 100 W5        29.70R WCI  23
SIOUX LOOKOUT  SNOWSHWR  28  27  93 S3        29.64R
TORONTO        MOCLDY    36  32  87 W15G22    29.84R
BIG TROUT LK   CLOUDY    25  23  93 SE5       29.70S WCI  19
PICKLE LAKE    FLURRIES  19  18  93 E5        29.64S WCI  13
DRYDEN         CLOUDY    28  28 100 W5        29.64R WCI  23
KENORA         FLURRIES  28  28 100 W7        29.65R WCI  21
$$
                *** MANITOBA***

CITY           SKY/WX    TMP DP  RH WIND       PRES   REMARKS
BRANDON        FOG       23  21  93 E13       29.64R VSB 1/8 WCI  11
DAUPHIN        FOG       18  18 100 W2        29.68R VSB 3/4
ISLAND LAKE    NOT AVBL
PILOT MOUND      N/A     21  21 100 SE8         N/A  WCI  12
THE PAS        CLOUDY    21  18  86 W6        29.68R WCI  14
THOMPSON       FLURRIES  23  23 100 VRB2      29.68R
WINNIPEG       CLOUDY    30  27  86 VRB2      29.70S
LYNN LAKE      CLOUDY    23  23 100 CALM      29.65R
CHURCHILL      FLURRIES  21  21 100 E7        29.81R WCI  13
GILLAM         FLURRIES  16  14  93 E3        29.74R
$$
                ***SASKATCHEWAN***

CITY           SKY/WX    TMP DP  RH WIND       PRES   REMARKS
ESTEVAN        SNOW      19  18  93 NE8       29.51R VSB 1/2 WCI   9
KINDERSLEY     MOCLDY     5   0  78 NW17G28   29.85R WCI -14
LLOYDMINSTER   FLURRIES   5   0  78 NW23G29   29.88R WCI -17
PRINCE ALBERT  FLURRIES  16  10  79 NW12      29.74R WCI   3
REGINA         CLOUDY    16  14  93 N20G28    29.65R WCI  -1
YORKTON        FOG       14  12  92 NW9       29.65R VSC1F1C2F2C3F3C4F4C5F5C6F6C7F7C8F8C9F9CaFaCbFbCcFcCdFdCe!



USA.gov is the U.S. government's official web portal to all federal, state and local government web resources and services.